Current weather by "City, St" or "zip code"  
 
Advertise Here

Current Conditions: Sparta Upper Cumberland Regional Airport, TN

A Few Clouds


45.0 F

Last Updated on Jan 27 2021, 1:55 pm CST
Humidity: 66%
Wind Speed: 6.9 G 13.8 mph
Barometer 30.03 in
Dewpoint: 33.8 F
Visibility: 10.00 mi
Precip: --
Heat Index: NA
Wind Chill: 41 F
Current conditions at:

Sparta Upper Cumberland Regional Airport, TN (KSRB)

Lat: 36.0559 Lon: 85.5307

Local Radar Image active severe weather and emergency alerts image image weather storm and storm spotter reports image weather observation monitoring service image
Local
Radar
Active
Alerts
Storm Reports Obs
Monitoring

Sign-up For Email & Text Message Weather Alert Notification Services


Advertise Here

Observation History for Sparta Upper Cumberland Regional Airport, TN


Time Wind
(mph)
Vis
(mi)
Weather Precip (in) Temperature (F) Relative
Humidity
Wind
Chill
(F)
Heat
Index
(F)
Pressure
Air Dwpt altimeter
(in)
sea level
(mb)
Rmks
1:55 pm CST 6.9 G 13.8 10.00 A Few Clouds -- 45.0 33.8 66% 41 NA 30.03 M
12:55 pm CST N 9.2 G 16.1 10.00 Partly Cloudy -- 45.0 33.8 66% 40 NA 30.06 M
11:55 am CST 5.8 G 16.1 10.00 A Few Clouds -- 48.0 37.4 66% 45 NA 30.04 M
10:55 am CST N 5.8 10.00 Fair -- 46.0 35.6 66% 43 NA 30.06 M
9:55 am CST N 5.8 10.00 Fair -- 45.0 35.6 71% 42 NA 30.06 M
8:55 am CST 3.5 10.00 Fair -- 41.0 33.8 76% NA NA 30.05 M
7:55 am CST N 4.6 10.00 Fair -- 37.0 32.0 81% 33 NA 30.04 M
6:55 am CST N 0.0 10.00 Mostly Cloudy -- 37.0 32.0 81% NA NA 30.05 M
5:55 am CST N 5.8 10.00 Overcast -- 37.0 32.0 81% 32 NA 30.05 M
4:55 am CST N 5.8 10.00 Overcast -- 39.0 32.0 75% 35 NA 30.08 M
3:55 am CST N 5.8 G 13.8 10.00 Mostly Cloudy -- 39.0 33.8 81% 35 NA 30.07 M
2:55 am CST 4.6 10.00 Partly Cloudy -- 39.0 33.8 81% 36 NA 30.08 M
1:55 am CST N 0.0 10.00 Overcast -- 41.0 35.6 81% NA NA 30.07 M
12:55 am CST N 3.5 10.00 Overcast -- 41.0 35.6 81% NA NA 30.07 M
11:55 pm CST N 5.8 10.00 Overcast -- 43.0 37.4 81% 39 NA 30.05 M
10:55 pm CST N 4.6 G 11.5 10.00 Mostly Cloudy -- 45.0 39.2 81% 43 NA 30.05 M
9:55 pm CST N 6.9 10.00 Mostly Cloudy -- 46.0 41.0 82% 42 NA 30.03 M
8:55 pm CST N 0.0 10.00 Mostly Cloudy -- 48.0 42.8 82% NA NA 30.00 M
7:55 pm CST N 0.0 10.00 Fair -- 48.0 42.8 82% NA NA 29.99 M
6:55 pm CST NW 5.8 G 11.5 10.00 Fair -- 52.0 42.8 72% 50 NA 29.96 M
5:55 pm CST N 0.0 10.00 Fair -- 43.0 39.2 87% NA NA 29.94 M
4:55 pm CST N 0.0 10.00 Fair -- 59.0 39.2 48% NA NA 29.91 M
3:55 pm CST 6.9 G 12.7 10.00 Fair -- 63.0 37.4 39% 63 NA 29.90 M
2:55 pm CST W 8.1 10.00 Fair -- 63.0 37.4 39% 63 NA 29.89 M

Regional Weather Observation


Livingston Municipal Airport, TN (K8A3)

Partly Cloudy
39.0 F

Lebanon Municipal Airport, TN (KM54)

Partly Cloudy
41.0 F

Sumner County Regional Airport, TN (KXNX)

Overcast
41.0 F

Sumner County Regional Airport, TN (KXNX)

Overcast
41.0 F

Crossville, Crossville Memorial-Whitson Field Airport, TN (KCSV)

Overcast
44.0 F

Smyrna, Smyrna Airport, TN (KMQY)

Mostly Cloudy
42.0 F